User: anonymous   Login
Location: Unspecified
(0.0000°N, 0.0000°E)
Time: 10:33:37
(UTC+00:00)
Language:

Hubble Space Telescope - Orbit

View from above orbital plane
View from above orbital plane
View from above satellite
View from above satellite

Ground track
Ground track

The orbit data is extracted from the following two-line orbital elements,

1 20580U 90037B   16341.69972719  .00000582  00000-0  25056-4 0  9996
2 20580  28.4723 199.2890 0002711 258.3494 101.6779 15.08614692261188
Epoch (UTC): 06 December 2016 16:47:36
Eccentricity: 0.0002711
inclination: 28.4723°
perigee height: 538 km
apogee height: 542 km
right ascension of ascending node: 199.2890°
argument of perigee: 258.3494°
revolutions per day: 15.08614692
mean anomaly at epoch: 101.6779°
orbit number at epoch: 26118

The dashed part of the orbit path shows where the satellite is in the earth's shadow,  

DLR